Weather History for Batman, Turkey

Change the Weather History Date:

Sunday, September 29, 2013

  Actual Average (LTCC) Record (LTCC)
Temperature  
Mean Temperature 68 °F -  
Max Temperature 86 °F 84 °F 96 °F (2004)
Min Temperature 51 °F 56 °F 51 °F (1997)
Cooling Degree Days 4    
Growing Degree Days 18 (Base 50)    
Moisture  
Dew Point 38 °F    
Average Humidity 37    
Maximum Humidity 67    
Minimum Humidity 14    
Precipitation  
Precipitation 0.00 in - - ()
Sea Level Pressure  
Sea Level Pressure 29.87 in    
Wind  
Wind Speed 5 mph ()    
Max Wind Speed 12 mph    
Max Gust Speed -    
Visibility 6.2 miles    
Events      
Averages and records for this station are not official NWS values.
T = Trace of Precipitation, MM = Missing Value Source: Averaged Metar Reports

Daily Weather History Graph

Daily Weather History Graph

Search for Another Location

Airport:

Trip Planner

Search our weather history database for the weather conditions in past years. The results will help you decide how hot, cold, wet, or windy it might be!

Date:

Astronomy

Sep. 29, 2013 Rise Set
Actual Time 6:09 AM EEST 6:01 PM EEST
Civil Twilight 5:43 AM EEST 6:27 PM EEST
Nautical Twilight 5:12 AM EEST 6:58 PM EEST
Astronomical Twilight 4:41 AM EEST 7:29 PM EEST
Moon 12:35 AM EEST (9/29) 2:40 PM EEST (9/29)
Length of Visible Light 12h 44m
Length of Day
11h 52m
Waning Crescent, 30% of the Moon is Illuminated
Sep 29
Waning Crescent
Oct 5
New
Oct 12
First Quarter
Oct 19
Full
Oct 27
Last Quarter

Hourly Weather History & Observations

Time (EEST) Temp. Dew Point Humidity Pressure Visibility Wind Dir Wind Speed Gust Speed Precip Events Conditions
12:20 AM 59.0 °F 39.2 °F 48% 29.86 in - NE 8.1 mph - N/A   Clear
12:50 AM 59.0 °F 41.0 °F 51% 29.86 in - NE 6.9 mph - N/A   Clear
1:20 AM 57.2 °F 41.0 °F 55% 29.86 in - NNE 6.9 mph - N/A   Clear
1:50 AM 57.2 °F 41.0 °F 55% 29.86 in - ENE 6.9 mph - N/A   Clear
2:20 AM 57.2 °F 41.0 °F 55% 29.86 in - NE 5.8 mph - N/A   Clear
2:50 AM 57.2 °F 41.0 °F 55% 29.86 in - North 4.6 mph - N/A   Clear
3:20 AM 53.6 °F 39.2 °F 58% 29.86 in - NNE 5.8 mph - N/A   Clear
3:50 AM 53.6 °F 42.8 °F 67% 29.86 in - NNE 4.6 mph - N/A   Clear
4:20 AM 55.4 °F 42.8 °F 63% 29.86 in - Variable 2.3 mph - N/A   Clear
4:50 AM 53.6 °F 42.8 °F 67% 29.89 in - NW 4.6 mph - N/A   Clear
5:20 AM 53.6 °F 42.8 °F 67% 29.89 in - Variable 1.2 mph - N/A   Clear
5:50 AM 53.6 °F 42.8 °F 67% 29.89 in - SSW 3.5 mph - N/A   Clear
6:20 AM 51.8 °F 41.0 °F 67% 29.89 in - Variable 2.3 mph - N/A   Clear
6:50 AM 53.6 °F 41.0 °F 62% 29.89 in - South 4.6 mph - N/A   Clear
7:20 AM 55.4 °F 39.2 °F 54% 29.92 in - South 2.3 mph - N/A   Clear
7:50 AM 60.8 °F 41.0 °F 48% 29.92 in - Variable 2.3 mph - N/A   Clear
8:20 AM 64.4 °F 41.0 °F 42% 29.92 in - Variable 2.3 mph - N/A   Clear
8:50 AM 66.2 °F 41.0 °F 40% 29.92 in - SW 4.6 mph - N/A   Clear
9:20 AM 68.0 °F 41.0 °F 37% 29.92 in - WSW 4.6 mph - N/A   Clear
9:50 AM 71.6 °F 39.2 °F 31% 29.92 in - WSW 6.9 mph - N/A   Clear
10:20 AM 73.4 °F 41.0 °F 31% 29.92 in - SW 4.6 mph - N/A   Clear
10:50 AM 77.0 °F 41.0 °F 28% 29.92 in - SW 4.6 mph - N/A   Clear
11:20 AM 80.6 °F 39.2 °F 23% 29.89 in - Variable 4.6 mph - N/A   Clear
11:50 AM 80.6 °F 41.0 °F 24% 29.89 in - WSW 5.8 mph - N/A   Clear
12:20 PM 82.4 °F 39.2 °F 21% 29.89 in - SW 5.8 mph - N/A   Clear
12:50 PM 84.2 °F 37.4 °F 19% 29.86 in - SSW 5.8 mph - N/A   Clear
1:20 PM 84.2 °F 32.0 °F 15% 29.86 in 6.2 mi SW 5.8 mph - N/A   Partly Cloudy
1:50 PM 86.0 °F 35.6 °F 17% 29.83 in 6.2 mi Variable 5.8 mph - N/A   Partly Cloudy
2:20 PM 86.0 °F 33.8 °F 15% 29.83 in 6.2 mi WSW 11.5 mph - N/A   Partly Cloudy
2:50 PM 86.0 °F 33.8 °F 15% 29.83 in 6.2 mi SW 10.4 mph - N/A   Partly Cloudy
3:20 PM 86.0 °F 32.0 °F 14% 29.83 in 6.2 mi SW 9.2 mph - N/A   Partly Cloudy
3:50 PM 86.0 °F 32.0 °F 14% 29.83 in 6.2 mi SSW 5.8 mph - N/A   Partly Cloudy
4:20 PM 86.0 °F 33.8 °F 15% 29.83 in 6.2 mi WSW 10.4 mph - N/A   Partly Cloudy
4:50 PM 84.2 °F 32.0 °F 15% 29.83 in 6.2 mi SW 11.5 mph - N/A   Partly Cloudy
5:20 PM 84.2 °F 33.8 °F 16% 29.83 in 6.2 mi SW 10.4 mph - N/A   Partly Cloudy
5:50 PM 80.6 °F 33.8 °F 18% 29.83 in 6.2 mi SW 6.9 mph - N/A   Partly Cloudy
6:20 PM 77.0 °F 35.6 °F 22% 29.83 in 6.2 mi South 4.6 mph - N/A   Partly Cloudy
6:50 PM 75.2 °F 33.8 °F 22% 29.83 in 6.2 mi South 3.5 mph - N/A   Partly Cloudy
7:20 PM 71.6 °F 35.6 °F 27% 29.83 in - West 2.3 mph - N/A   Clear
7:50 PM 69.8 °F 35.6 °F 28% 29.86 in - NE 8.1 mph - N/A   Clear
8:20 PM 68.0 °F 35.6 °F 30% 29.86 in - ENE 4.6 mph - N/A   Clear
8:50 PM 66.2 °F 35.6 °F 32% 29.86 in - NE 4.6 mph - N/A   Clear
9:20 PM 66.2 °F 33.8 °F 30% 29.86 in - SSW 4.6 mph - N/A   Clear
9:50 PM 66.2 °F 35.6 °F 32% 29.86 in - SW 3.5 mph - N/A   Clear
10:20 PM 66.2 °F 37.4 °F 35% 29.86 in - SW 3.5 mph - N/A   Clear
10:50 PM 62.6 °F 35.6 °F 37% 29.86 in - Calm Calm - N/A   Clear
11:20 PM 62.6 °F 35.6 °F 37% 29.86 in - SW 3.5 mph - N/A   Clear
11:50 PM 60.8 °F 37.4 °F 42% 29.86 in - SSW 4.6 mph - N/A   Clear